Location: *
(38.9555°S, 57.3572°E)
Time: 01:44:27
(UTC+00:00)

Lacrosse 5 - Pass Details

Date: 15 July 2020
Orbit: 717 x 720 km, 57.0° (Epoch: 04 August)

Event Time Altitude Azimuth Distance (km) Brightness Sun altitude
Rises 15:14:47 0° 225° (SW) 3,157 5.7 -24.3°
Reaches altitude 10° 15:17:11 10° 226° (SW) 2,231 4.8 -24.7°
Maximum altitude 15:22:19 76° 310° (NW) 752 1.9 -25.7°
Enters shadow 15:23:08 61° 13° (NNE) 820 2.0 -25.9°
